Location: Johnson City
(36.3130°N, 82.3540°W)
Time: 23:19:28
(UTC-04:00)

N. Korean satellite - Visible Passes

Search period start: 01 October 2022 00:00
Search period end: 11 October 2022 00:00
Orbit: 426 x 468 km, 97.3° (Epoch: 01 October)

Date Brightness Start Highest point End Pass type
(mag) Time Alt. Az. Time Alt. Az. Time Alt. Az.
02 Oct 7.0 06:32:35 10° NNE 06:35:47 58° E 06:39:00 10° S visible
03 Oct 9.5 05:57:38 10° NE 05:59:51 17° E 06:02:02 10° SE visible
04 Oct 6.3 06:53:27 10° N 06:56:41 62° WNW 06:59:54 10° SSW visible
05 Oct 8.2 06:17:45 10° NNE 06:20:44 33° E 06:23:43 10° SSE visible
06 Oct 10.0 05:44:03 10° E 05:44:34 10° E 05:45:06 10° ESE visible
07 Oct 6.6 06:38:07 10° NNE 06:41:23 72° ESE 06:44:39 10° S visible
08 Oct 9.2 06:02:44 10° NE 06:05:14 20° E 06:07:43 10° SE visible
09 Oct 6.5 06:58:36 10° N 07:01:48 51° WNW 07:04:59 10° SSW visible
10 Oct 7.9 06:22:32 10° NNE 06:25:39 39° E 06:28:45 10° S visible
